This is the latest recevied weather packets stored in our database for station/object OZ0AJ-13. If no packets are shown the sender has not sent any weather packets the latest 10 day(s).
| Time | Temp. | Humidity | Pressure | Rain* | Wind** | Luminosity | Snow |
|---|---|---|---|---|---|---|---|
| 1777878618 | 8.33° C | 85% | 1011.4 hPa | 0 mm | - | - | - |
| 1777878034 | 7.78° C | 85% | 1011.3 hPa | 0 mm | - | - | - |
| 1777877430 | 7.78° C | 86% | 1011.1 hPa | 0 mm | - | - | - |
| 1777876826 | 7.78° C | 86% | 1011.1 hPa | 0 mm | - | - | - |
| 1777876222 | 7.78° C | 87% | 1010.9 hPa | 0 mm | - | - | - |
| 1777875618 | 7.78° C | 87% | 1010.9 hPa | 0 mm | - | - | - |
| 1777875035 | 7.78° C | 88% | 1010.8 hPa | 0 mm | - | - | - |
| 1777874430 | 7.78° C | 89% | 1010.9 hPa | 0 mm | - | - | - |
| 1777873827 | 7.22° C | 90% | 1010.8 hPa | 0 mm | - | - | - |
| 1777873222 | 7.22° C | 92% | 1010.7 hPa | 0 mm | - | - | - |
| 1777872619 | 7.22° C | 93% | 1010.6 hPa | 0 mm | - | - | - |
| 1777872035 | 6.67° C | 93% | 1010.4 hPa | 0 mm | - | - | - |
| 1777871431 | 6.67° C | 94% | 1010.2 hPa | 0 mm | - | - | - |
| 1777870827 | 6.67° C | 95% | 1010.1 hPa | 0 mm | - | - | - |
| 1777870223 | 6.67° C | 95% | 1010.2 hPa | 0 mm | - | - | - |
| 1777869619 | 6.11° C | 95% | 1010 hPa | 0 mm | - | - | - |
| 1777869035 | 6.11° C | 96% | 1010 hPa | 0 mm | - | - | - |
| 1777868431 | 6.67° C | 96% | 1009.8 hPa | 0 mm | - | - | - |
| 1777867827 | 6.67° C | 95% | 1009.8 hPa | 0 mm | - | - | - |
| 1777867223 | 6.67° C | 95% | 1009.6 hPa | 0 mm | - | - | - |
| 1777866620 | 6.67° C | 96% | 1009.6 hPa | 0 mm | - | - | - |
| 1777866016 | 6.67° C | 96% | 1009.6 hPa | 0 mm | - | - | - |
| 1777865432 | 6.67° C | 96% | 1009.6 hPa | 0 mm | - | - | - |
| 1777864828 | 6.67° C | 96% | 1009.4 hPa | 0 mm | - | - | - |
| 1777864224 | 7.22° C | 96% | 1009.5 hPa | 0 mm | - | - | - |
* Rain latest hour (hover to see other rain measurements)
** Current wind speed in m/s (hover to see current wind gust speed)